Location: Helsinki
(60.1699°N, 24.9384°E)
Time: 15:44:20
(UTC+02:00)

Tiros 1 - Pass Details

Date: 08 October 2022
Orbit: 629 x 662 km, 48.4° (Epoch: 07 December)

Event Time Altitude Azimuth Distance (km) Brightness Sun altitude
Rises 03:17:43 0° 258° (WSW) 2,993 - -30.4°
Reaches altitude 10° 03:20:57 10° 236° (SW) 2,075 - -30.1°
Maximum altitude 03:23:40 15° 201° (SSW) 1,744 - -29.9°
Drops below altitude 10° 03:26:23 10° 166° (SSE) 2,063 - -29.7°
Sets 03:29:35 0° 143° (SE) 2,965 - -29.4°
